contact:dominique.lefevre@mio.osupytheas.fr, maurice.libes@osupytheas.fr, didier.mallarino@osupytheas.fr
Project:EMSO http://www.emso-fr.org/EMSO-France
Depth: 2436.0 m
Title:EMSO Ligure Ouest : Data MII capteur AQUADOPP
Date,Latitude,Longitude,X_East,Y_North,Z_Up,Amplitude_X,Amplitude_Y,Amplitude_Z,Batterie,SoundSpeed,Heading,Pitch,Roll,Pressure,TIS,Speed,Direction
, degrees North, degrees East, m.s-1, m.s-1,m.s-1, 1, 1, 1, Volt, m.s-1, degree, degree, degree, dbar, degree_C, m.s-1, degree
2023-09-09T00:04:03,42.805,6.029,-0.048,0.012,-0.019,103.0,103.0,101.0,13.4,1505.2,341.2,-0.8,1.8,2471.555,13.28,0.049,284.0
2023-09-09T00:07:03,42.805,6.029,-0.056,0.01,-0.046,103.0,103.0,102.0,13.4,1505.2,332.0,-0.8,1.8,2471.511,13.29,0.056,280.1
2023-09-09T00:10:03,42.805,6.029,-0.034,-0.008,-0.045,103.0,102.0,101.0,13.4,1505.2,334.3,-0.8,1.8,2471.543,13.29,0.034,256.8
2023-09-09T00:13:03,42.805,6.029,-0.002,-0.032,-0.074,103.0,102.0,102.0,13.4,1505.2,325.4,-0.8,1.8,2471.461,13.29,0.032,183.6
2023-09-09T00:16:03,42.805,6.029,-0.039,-0.01,-0.041,103.0,103.0,101.0,13.4,1505.2,331.2,-0.8,1.8,2471.502,13.29,0.04,255.6
2023-09-09T00:19:03,42.805,6.029,-0.038,0.001,-0.012,103.0,102.0,102.0,13.4,1505.2,334.9,-0.8,1.8,2471.535,13.29,0.038,271.5
2023-09-09T00:22:03,42.805,6.029,-0.036,-0.001,-0.006,104.0,102.0,101.0,13.4,1505.2,326.8,-0.7,1.8,2471.502,13.29,0.036,268.4
2023-09-09T00:25:03,42.805,6.029,-0.021,-0.001,-0.043,103.0,103.0,103.0,13.4,1505.2,336.8,-0.8,1.8,2471.481,13.29,0.021,267.3
2023-09-09T00:28:03,42.805,6.029,-0.041,0.024,-0.046,104.0,103.0,102.0,13.4,1505.2,337.8,-0.7,1.8,2471.445,13.29,0.047,300.3
2023-09-09T00:31:03,42.805,6.029,-0.037,0.016,0.003,104.0,102.0,102.0,13.4,1505.2,355.6,-0.7,1.8,2471.511,13.29,0.04,293.4
2023-09-09T00:34:03,42.805,6.029,-0.025,0.01,-0.017,103.0,104.0,103.0,13.4,1505.2,341.2,-0.7,1.8,2471.513,13.29,0.026,291.8
2023-09-09T00:37:03,42.805,6.029,-0.007,0.0,-0.043,103.0,103.0,103.0,13.4,1505.2,332.4,-0.8,1.8,2471.483,13.29,0.007,270.0
2023-09-09T00:40:03,42.805,6.029,-0.031,0.008,-0.055,104.0,102.0,102.0,13.4,1505.2,345.7,-0.8,1.8,2471.469,13.29,0.032,284.5
2023-09-09T00:43:03,42.805,6.029,-0.029,0.003,-0.063,103.0,103.0,102.0,13.3,1505.2,333.0,-0.8,1.8,2471.484,13.29,0.029,275.9
2023-09-09T00:46:03,42.805,6.029,-0.024,0.0,-0.034,103.0,103.0,102.0,13.4,1505.2,335.0,-0.7,1.8,2471.489,13.29,0.024,270.0
2023-09-09T00:49:03,42.805,6.029,-0.031,0.025,-0.011,103.0,102.0,102.0,13.3,1505.2,341.9,-0.8,1.8,2471.44,13.29,0.039,308.9
2023-09-09T00:52:03,42.805,6.029,-0.021,-0.016,-0.013,103.0,103.0,103.0,13.4,1505.2,333.8,-0.8,1.8,2471.477,13.29,0.026,232.7
2023-09-09T00:55:03,42.805,6.029,-0.05,-0.005,-0.061,103.0,103.0,103.0,13.3,1505.2,330.3,-0.8,1.8,2471.468,13.29,0.05,264.3
2023-09-09T00:58:03,42.805,6.029,-0.022,-0.007,-0.026,104.0,101.0,103.0,13.3,1505.2,338.7,-0.8,1.8,2471.467,13.29,0.023,252.4
2023-09-09T01:04:03,42.805,6.029,-0.019,0.043,0.0,105.0,103.0,102.0,13.4,1505.2,331.1,-0.7,1.8,2471.538,13.28,0.047,336.2
2023-09-09T01:07:03,42.805,6.029,-0.007,-0.019,-0.023,102.0,102.0,102.0,13.4,1505.2,326.3,-0.8,1.8,2471.554,13.29,0.02,200.2
2023-09-09T01:10:03,42.805,6.029,-0.038,0.012,-0.033,102.0,102.0,102.0,13.3,1505.2,337.5,-0.8,1.8,2471.503,13.29,0.039,287.5
2023-09-09T01:13:03,42.805,6.029,-0.021,-0.007,-0.028,103.0,103.0,102.0,13.4,1505.2,339.5,-0.8,1.8,2471.544,13.29,0.022,251.6
2023-09-09T01:16:03,42.805,6.029,-0.016,-0.017,-0.034,102.0,102.0,102.0,13.4,1505.2,337.5,-0.8,1.8,2471.491,13.29,0.023,223.3
2023-09-09T01:19:03,42.805,6.029,-0.019,0.007,-0.024,103.0,102.0,103.0,13.4,1505.2,328.7,-0.7,1.8,2471.528,13.29,0.02,290.2
2023-09-09T01:22:02,42.805,6.029,-0.037,-0.007,-0.02,103.0,103.0,102.0,13.4,1505.2,339.0,-0.7,1.8,2471.461,13.29,0.037,259.3
2023-09-09T01:25:03,42.805,6.029,-0.028,-0.013,-0.047,103.0,102.0,102.0,13.3,1505.2,330.9,-0.8,1.8,2471.5,13.29,0.03,245.1
2023-09-09T01:28:03,42.805,6.029,-0.02,0.009,-0.053,104.0,103.0,100.0,13.3,1505.2,352.7,-0.8,1.8,2471.498,13.29,0.021,294.2
2023-09-09T01:31:03,42.805,6.029,-0.029,-0.013,-0.019,103.0,102.0,102.0,13.4,1505.2,327.5,-0.8,1.8,2471.51,13.29,0.031,245.9
2023-09-09T01:34:03,42.805,6.029,-0.032,-0.006,-0.033,103.0,102.0,102.0,13.3,1505.2,333.9,-0.8,1.8,2471.457,13.29,0.032,259.4
2023-09-09T01:37:03,42.805,6.029,-0.054,0.014,-0.024,103.0,102.0,102.0,13.4,1505.2,337.9,-0.8,1.8,2471.501,13.29,0.055,284.5
2023-09-09T01:40:03,42.805,6.029,-0.055,-0.002,-0.03,101.0,103.0,103.0,13.4,1505.2,343.6,-0.8,1.8,2471.475,13.29,0.055,267.9
2023-09-09T01:43:03,42.805,6.029,-0.023,-0.006,-0.016,102.0,104.0,103.0,13.3,1505.2,333.8,-0.7,1.8,2471.458,13.29,0.023,255.4
2023-09-09T01:46:03,42.805,6.029,-0.06,-0.009,-0.034,104.0,101.0,103.0,13.3,1505.2,346.2,-0.8,1.8,2471.487,13.29,0.06,261.5
2023-09-09T01:49:03,42.805,6.029,-0.053,0.001,-0.051,104.0,102.0,101.0,13.4,1505.2,336.4,-0.8,1.8,2471.463,13.29,0.053,271.1
2023-09-09T01:52:03,42.805,6.029,-0.055,0.001,-0.014,104.0,102.0,102.0,13.4,1505.2,331.6,-0.7,1.8,2471.433,13.29,0.055,271.0
2023-09-09T01:55:03,42.805,6.029,-0.04,0.013,-0.011,104.0,103.0,101.0,13.3,1505.2,347.3,-0.7,1.8,2471.499,13.29,0.042,288.0
2023-09-09T01:58:03,42.805,6.029,-0.023,-0.004,-0.021,103.0,103.0,101.0,13.4,1505.2,328.7,-0.8,1.8,2471.493,13.29,0.023,260.1
2023-09-09T02:04:03,42.805,6.029,-0.047,-0.003,-0.043,103.0,103.0,102.0,13.4,1505.2,330.7,-0.8,1.8,2471.493,13.28,0.047,266.4
2023-09-09T02:07:03,42.805,6.029,-0.024,-0.011,-0.027,103.0,103.0,102.0,13.3,1505.2,327.6,-0.7,1.8,2471.538,13.29,0.026,245.4
2023-09-09T02:10:03,42.805,6.029,-0.028,-0.003,-0.043,103.0,102.0,102.0,13.4,1505.2,340.3,-0.8,1.8,2471.539,13.29,0.028,263.9
2023-09-09T02:13:03,42.805,6.029,-0.036,-0.004,-0.028,104.0,101.0,102.0,13.3,1505.2,337.0,-0.7,1.9,2471.504,13.29,0.036,263.7
2023-09-09T02:16:03,42.805,6.029,-0.035,0.003,-0.008,102.0,102.0,103.0,13.4,1505.2,344.8,-0.8,1.8,2471.511,13.29,0.035,274.9
2023-09-09T02:19:03,42.805,6.029,-0.03,-0.003,-0.019,104.0,102.0,101.0,13.4,1505.2,329.0,-0.7,1.8,2471.504,13.29,0.03,264.3
2023-09-09T02:22:03,42.805,6.029,-0.04,0.0,-0.029,102.0,104.0,101.0,13.4,1505.2,334.8,-0.8,1.8,2471.5,13.29,0.04,270.0
2023-09-09T02:25:03,42.805,6.029,-0.019,0.007,-0.042,102.0,104.0,101.0,13.4,1505.2,331.8,-0.8,1.8,2471.503,13.29,0.02,290.2
2023-09-09T02:28:03,42.805,6.029,-0.03,-0.001,-0.019,103.0,103.0,101.0,13.3,1505.2,336.8,-0.7,1.8,2471.54,13.29,0.03,268.1
2023-09-09T02:31:03,42.805,6.029,-0.034,0.007,0.0,102.0,103.0,102.0,13.3,1505.2,352.3,-0.7,1.8,2471.471,13.29,0.034,281.6
2023-09-09T02:34:03,42.805,6.029,-0.037,-0.005,-0.017,102.0,102.0,102.0,13.4,1505.2,324.9,-0.8,1.8,2471.499,13.29,0.037,262.3
2023-09-09T02:37:03,42.805,6.029,-0.02,-0.011,-0.052,103.0,102.0,102.0,13.3,1505.2,331.2,-0.7,1.8,2471.528,13.29,0.022,241.2
2023-09-09T02:40:03,42.805,6.029,-0.033,-0.015,-0.065,104.0,102.0,101.0,13.4,1505.2,339.5,-0.8,1.8,2471.495,13.29,0.036,245.6
2023-09-09T02:43:03,42.805,6.029,-0.036,-0.001,0.007,104.0,102.0,102.0,13.4,1505.2,329.5,-0.8,1.8,2471.491,13.29,0.036,268.4
2023-09-09T02:46:03,42.805,6.029,-0.029,-0.001,-0.052,102.0,104.0,100.0,13.3,1505.2,344.0,-0.8,1.8,2471.505,13.29,0.029,268.0
2023-09-09T02:49:03,42.805,6.029,-0.03,-0.002,-0.04,102.0,103.0,102.0,13.4,1505.2,352.0,-0.8,1.8,2471.513,13.29,0.03,266.2
2023-09-09T02:52:03,42.805,6.029,-0.043,0.015,-0.047,103.0,102.0,102.0,13.4,1505.2,348.4,-0.8,1.9,2471.516,13.29,0.045,289.2
2023-09-09T02:55:03,42.805,6.029,-0.033,-0.036,-0.041,103.0,101.0,103.0,13.3,1505.2,349.5,-0.8,1.8,2471.464,13.29,0.048,222.5
2023-09-09T02:58:03,42.805,6.029,-0.051,-0.012,-0.035,103.0,101.0,101.0,13.4,1505.2,331.0,-0.8,1.8,2471.479,13.29,0.052,256.8
2023-09-09T04:04:02,42.805,6.029,-0.009,0.003,0.007,102.0,103.0,102.0,13.3,1505.1,344.8,-0.7,1.8,2472.02,13.27,0.009,288.4
2023-09-09T04:07:03,42.805,6.029,-0.045,-0.007,-0.052,103.0,102.0,102.0,13.4,1505.2,332.9,-0.8,1.8,2471.904,13.28,0.045,261.2
2023-09-09T04:10:03,42.805,6.029,-0.02,0.007,-0.042,102.0,103.0,102.0,13.3,1505.2,339.3,-0.7,1.8,2471.823,13.28,0.021,289.3
2023-09-09T04:13:05,42.805,6.029,-0.036,-0.015,-0.032,103.0,102.0,102.0,13.4,1505.2,340.6,-0.8,1.8,2471.769,13.28,0.039,247.4
2023-09-09T04:16:03,42.805,6.029,-0.041,0.018,-0.009,102.0,102.0,102.0,13.4,1505.2,353.0,-0.8,1.8,2471.663,13.28,0.044,293.7
2023-09-09T04:19:03,42.805,6.029,-0.034,0.009,-0.066,102.0,102.0,102.0,13.4,1505.2,342.3,-0.8,1.8,2471.623,13.29,0.035,284.8
2023-09-09T04:22:02,42.805,6.029,-0.032,0.018,-0.025,103.0,103.0,101.0,13.3,1505.2,338.5,-0.8,1.8,2471.58,13.29,0.036,299.4
2023-09-09T04:25:03,42.805,6.029,-0.051,0.009,-0.034,102.0,102.0,102.0,13.4,1505.2,345.2,-0.7,1.8,2471.55,13.29,0.051,280.0
2023-09-09T04:28:03,42.805,6.029,-0.024,0.009,-0.048,103.0,102.0,102.0,13.4,1505.2,354.4,-0.7,1.8,2471.518,13.29,0.025,290.6
2023-09-09T04:31:03,42.805,6.029,-0.038,-0.011,-0.038,103.0,101.0,101.0,13.4,1505.2,337.3,-0.8,1.8,2471.502,13.29,0.039,253.9
2023-09-09T04:34:03,42.805,6.029,-0.04,0.0,-0.039,103.0,102.0,101.0,13.3,1505.2,337.8,-0.8,1.8,2471.509,13.29,0.04,270.0
2023-09-09T04:37:03,42.805,6.029,-0.037,0.015,-0.034,103.0,100.0,102.0,13.4,1505.2,345.1,-0.7,1.8,2471.504,13.29,0.039,292.1
2023-09-09T04:40:03,42.805,6.029,-0.041,0.001,-0.025,101.0,102.0,102.0,13.4,1505.2,338.9,-0.8,1.8,2471.493,13.29,0.041,271.4
2023-09-09T04:43:03,42.805,6.029,-0.037,-0.012,-0.055,103.0,102.0,101.0,13.4,1505.2,338.5,-0.7,1.8,2471.474,13.29,0.038,252.0
2023-09-09T04:46:03,42.805,6.029,-0.03,0.007,-0.03,102.0,103.0,102.0,13.4,1505.2,344.5,-0.7,1.8,2471.493,13.29,0.03,283.1
2023-09-09T04:49:03,42.805,6.029,-0.049,0.002,-0.045,103.0,101.0,101.0,13.4,1505.2,329.7,-0.8,1.8,2471.501,13.29,0.049,272.3
2023-09-09T04:52:03,42.805,6.029,-0.042,0.004,-0.057,104.0,103.0,100.0,13.4,1505.2,346.2,-0.8,1.8,2471.471,13.29,0.042,275.4
2023-09-09T04:55:03,42.805,6.029,-0.028,-0.001,-0.056,102.0,102.0,101.0,13.3,1505.2,344.5,-0.8,1.8,2471.481,13.29,0.028,268.0
2023-09-09T04:58:03,42.805,6.029,-0.039,-0.017,-0.055,102.0,102.0,101.0,13.3,1505.2,342.3,-0.8,1.8,2471.468,13.29,0.042,246.5
2023-09-09T05:04:03,42.805,6.029,-0.031,-0.013,-0.048,102.0,103.0,102.0,13.4,1505.2,348.0,-0.7,1.8,2471.485,13.28,0.033,247.3
2023-09-09T05:07:02,42.805,6.029,-0.069,0.015,-0.033,103.0,102.0,102.0,13.4,1505.2,349.5,-0.7,1.8,2471.503,13.28,0.07,282.3
2023-09-09T05:10:03,42.805,6.029,-0.045,0.004,-0.022,103.0,101.0,101.0,13.4,1505.2,334.6,-0.8,1.8,2471.503,13.29,0.045,275.1
2023-09-09T05:13:03,42.805,6.029,-0.042,-0.006,-0.04,102.0,102.0,102.0,13.4,1505.2,347.9,-0.8,1.8,2471.538,13.29,0.042,261.9
2023-09-09T05:16:03,42.805,6.029,-0.036,-0.014,-0.046,102.0,102.0,102.0,13.4,1505.2,325.0,-0.7,1.8,2471.482,13.29,0.038,248.8
2023-09-09T05:19:03,42.805,6.029,-0.037,-0.016,-0.038,101.0,103.0,101.0,13.4,1505.2,331.0,-0.7,1.8,2471.477,13.29,0.04,246.6
2023-09-09T05:22:03,42.805,6.029,-0.025,0.002,-0.013,103.0,102.0,101.0,13.3,1505.2,345.3,-0.8,1.8,2471.46,13.29,0.025,274.6
2023-09-09T05:25:03,42.805,6.029,-0.006,-0.01,-0.022,103.0,102.0,101.0,13.3,1505.2,324.1,-0.8,1.8,2471.494,13.29,0.011,211.0
2023-09-09T05:28:03,42.805,6.029,-0.027,-0.009,-0.012,103.0,102.0,102.0,13.4,1505.2,331.6,-0.8,1.8,2471.49,13.29,0.028,251.6
2023-09-09T05:31:03,42.805,6.029,-0.058,0.011,-0.043,102.0,103.0,101.0,13.3,1505.2,341.2,-0.7,1.8,2471.511,13.29,0.059,280.7
2023-09-09T05:34:03,42.805,6.029,-0.047,-0.019,-0.064,103.0,101.0,101.0,13.4,1505.2,324.4,-0.8,1.8,2471.47,13.29,0.05,248.0
2023-09-09T05:37:08,42.805,6.029,-0.018,-0.002,-0.024,101.0,102.0,102.0,13.4,1505.2,334.9,-0.7,1.8,2471.491,13.29,0.018,263.7
2023-09-09T05:40:03,42.805,6.029,-0.016,-0.021,-0.062,103.0,104.0,100.0,13.4,1505.2,345.4,-0.7,1.8,2471.486,13.29,0.026,217.3
2023-09-09T05:43:03,42.805,6.029,-0.035,-0.002,-0.005,102.0,103.0,102.0,13.4,1505.2,329.8,-0.8,1.8,2471.46,13.29,0.035,266.7
2023-09-09T05:46:03,42.805,6.029,-0.042,0.004,-0.064,102.0,102.0,102.0,13.4,1505.2,340.4,-0.8,1.9,2471.461,13.29,0.042,275.4
2023-09-09T05:49:03,42.805,6.029,-0.027,-0.005,-0.021,103.0,101.0,102.0,13.4,1505.2,324.6,-0.8,1.8,2471.478,13.29,0.027,259.5
2023-09-09T05:52:03,42.805,6.029,-0.033,-0.011,-0.056,104.0,100.0,103.0,13.4,1505.2,344.5,-0.8,1.8,2471.487,13.29,0.034,251.6
2023-09-09T05:55:03,42.805,6.029,-0.051,0.018,-0.032,103.0,102.0,101.0,13.4,1505.2,338.2,-0.8,1.8,2471.466,13.29,0.054,289.4
2023-09-09T05:58:08,42.805,6.029,-0.021,0.022,-0.028,102.0,103.0,100.0,13.4,1505.2,353.0,-0.8,1.8,2471.45,13.29,0.03,316.3
2023-09-09T06:04:03,42.805,6.029,-0.04,-0.011,-0.055,102.0,102.0,101.0,13.3,1505.2,333.4,-0.8,1.8,2471.486,13.28,0.041,254.6
2023-09-09T06:07:03,42.805,6.029,-0.019,-0.014,-0.046,103.0,102.0,101.0,13.4,1505.2,338.2,-0.8,1.8,2471.509,13.28,0.023,233.6
2023-09-09T06:10:03,42.805,6.029,-0.032,-0.017,-0.041,104.0,102.0,102.0,13.4,1505.2,330.5,-0.8,1.9,2471.5,13.29,0.036,242.0
2023-09-09T06:13:03,42.805,6.029,-0.028,-0.017,-0.025,102.0,102.0,102.0,13.3,1505.2,334.4,-0.8,1.8,2471.479,13.29,0.032,238.7
2023-09-09T06:16:03,42.805,6.029,-0.03,-0.028,-0.039,103.0,102.0,101.0,13.4,1505.2,328.2,-0.7,1.8,2471.462,13.29,0.041,227.0
2023-09-09T06:19:02,42.805,6.029,-0.026,-0.018,-0.044,102.0,102.0,101.0,13.4,1505.2,334.2,-0.7,1.8,2471.478,13.29,0.031,235.3
2023-09-09T06:22:02,42.805,6.029,-0.044,-0.015,-0.03,102.0,103.0,101.0,13.4,1505.2,325.7,-0.8,1.8,2471.447,13.29,0.046,251.2
2023-09-09T06:25:03,42.805,6.029,-0.023,0.006,-0.041,104.0,102.0,102.0,13.4,1505.2,348.0,-0.8,1.8,2471.457,13.29,0.023,284.6
2023-09-09T06:28:02,42.805,6.029,-0.021,-0.006,-0.037,103.0,102.0,102.0,13.4,1505.2,353.6,-0.8,1.8,2471.459,13.29,0.021,254.1
2023-09-09T06:31:03,42.805,6.029,-0.028,-0.012,-0.006,103.0,102.0,101.0,13.4,1505.2,342.9,-0.8,1.9,2471.441,13.29,0.03,246.8
2023-09-09T06:34:03,42.805,6.029,-0.035,0.021,-0.001,103.0,102.0,101.0,13.4,1505.2,348.8,-0.8,1.8,2471.43,13.29,0.04,301.0
2023-09-09T06:37:03,42.805,6.029,-0.036,-0.015,-0.04,101.0,102.0,101.0,13.4,1505.2,330.6,-0.7,1.8,2471.471,13.29,0.039,247.4
2023-09-09T06:40:03,42.805,6.029,-0.031,0.012,-0.046,103.0,101.0,101.0,13.4,1505.2,339.0,-0.8,1.8,2471.453,13.29,0.033,291.2
2023-09-09T06:43:03,42.805,6.029,-0.029,-0.017,-0.036,102.0,102.0,101.0,13.3,1505.2,327.5,-0.8,1.8,2471.467,13.29,0.033,239.6
2023-09-09T06:46:03,42.805,6.029,-0.033,-0.016,-0.032,102.0,102.0,101.0,13.3,1505.2,330.8,-0.7,1.8,2471.477,13.29,0.036,244.1
2023-09-09T06:49:03,42.805,6.029,-0.053,0.012,-0.01,102.0,101.0,101.0,13.3,1505.2,340.4,-0.8,1.8,2471.465,13.29,0.054,282.8
2023-09-09T06:52:03,42.805,6.029,-0.027,-0.015,-0.035,102.0,103.0,102.0,13.4,1505.2,340.8,-0.8,1.8,2471.442,13.29,0.03,240.9
2023-09-09T06:55:03,42.805,6.029,-0.05,0.003,-0.006,102.0,102.0,102.0,13.4,1505.2,325.0,-0.7,1.8,2471.45,13.29,0.05,273.4
2023-09-09T06:58:03,42.805,6.029,-0.051,0.013,-0.028,103.0,101.0,102.0,13.4,1505.2,341.5,-0.7,1.8,2471.423,13.29,0.052,284.3
2023-09-09T07:04:05,42.805,6.029,-0.058,-0.01,-0.054,102.0,102.0,101.0,13.3,1505.2,335.5,-0.8,1.8,2471.511,13.28,0.058,260.2
2023-09-09T07:07:03,42.805,6.029,-0.06,0.0,-0.028,103.0,102.0,101.0,13.4,1505.2,331.6,-0.8,1.8,2471.508,13.28,0.06,270.0
2023-09-09T07:10:03,42.805,6.029,-0.028,0.007,-0.046,101.0,103.0,103.0,13.3,1505.2,332.6,-0.8,1.8,2471.516,13.29,0.028,284.0
2023-09-09T07:13:03,42.805,6.029,-0.037,-0.043,-0.052,103.0,102.0,101.0,13.4,1505.2,331.6,-0.8,1.8,2471.444,13.29,0.056,220.7
2023-09-09T07:16:03,42.805,6.029,-0.055,-0.016,-0.04,102.0,102.0,101.0,13.4,1505.2,328.7,-0.8,1.8,2471.506,13.29,0.057,253.8
2023-09-09T07:19:03,42.805,6.029,-0.036,-0.02,-0.06,103.0,102.0,101.0,13.3,1505.2,346.2,-0.8,1.8,2471.462,13.29,0.041,240.9
2023-09-09T07:22:03,42.805,6.029,-0.055,0.02,-0.024,103.0,102.0,101.0,13.4,1505.2,341.5,-0.8,1.8,2471.452,13.29,0.058,290.0
2023-09-09T07:25:03,42.805,6.029,-0.036,0.001,-0.032,102.0,103.0,103.0,13.3,1505.2,333.4,-0.8,1.8,2471.431,13.29,0.036,271.6
2023-09-09T07:28:02,42.805,6.029,-0.049,-0.003,-0.029,102.0,101.0,102.0,13.3,1505.2,352.4,-0.8,1.8,2471.459,13.29,0.049,266.5
2023-09-09T07:31:03,42.805,6.029,-0.019,-0.022,-0.058,103.0,102.0,101.0,13.3,1505.2,334.9,-0.7,1.8,2471.443,13.29,0.029,220.8
2023-09-09T07:34:03,42.805,6.029,-0.007,-0.035,-0.073,102.0,102.0,102.0,13.3,1505.2,342.7,-0.8,1.8,2471.455,13.29,0.035,191.3
2023-09-09T07:37:03,42.805,6.029,-0.019,-0.009,-0.001,102.0,102.0,102.0,13.3,1505.2,328.8,-0.8,1.8,2471.441,13.29,0.021,244.7
2023-09-09T07:40:03,42.805,6.029,-0.037,0.006,-0.048,102.0,103.0,101.0,13.4,1505.2,348.1,-0.8,1.8,2471.459,13.29,0.037,279.2
2023-09-09T07:43:08,42.805,6.029,-0.025,0.0,-0.049,103.0,102.0,101.0,13.4,1505.2,334.9,-0.8,1.8,2471.474,13.29,0.025,270.0
2023-09-09T07:46:03,42.805,6.029,-0.036,-0.004,-0.029,103.0,103.0,101.0,13.4,1505.2,343.4,-0.8,1.8,2471.447,13.29,0.036,263.7
2023-09-09T07:49:03,42.805,6.029,-0.033,-0.002,-0.019,103.0,102.0,102.0,13.4,1505.2,338.8,-0.8,1.8,2471.469,13.29,0.033,266.5
2023-09-09T07:52:03,42.805,6.029,-0.053,0.015,0.001,102.0,103.0,101.0,13.4,1505.2,328.1,-0.8,1.8,2471.444,13.29,0.055,285.8
2023-09-09T07:55:03,42.805,6.029,-0.036,0.016,-0.011,102.0,104.0,100.0,13.4,1505.2,348.0,-0.8,1.8,2471.494,13.29,0.039,294.0
2023-09-09T07:58:03,42.805,6.029,-0.02,-0.008,-0.017,103.0,102.0,102.0,13.4,1505.2,338.2,-0.7,1.8,2471.445,13.29,0.021,248.2
2023-09-09T08:04:03,42.805,6.029,-0.04,0.007,-0.064,102.0,102.0,102.0,13.3,1505.2,347.3,-0.8,1.9,2471.511,13.28,0.04,279.9
2023-09-09T08:07:03,42.805,6.029,-0.021,0.005,-0.004,102.0,102.0,103.0,13.4,1505.2,326.3,-0.8,1.8,2471.498,13.28,0.021,283.4
2023-09-09T08:10:03,42.805,6.029,-0.008,-0.008,-0.035,103.0,102.0,101.0,13.4,1505.2,343.4,-0.8,1.8,2471.493,13.29,0.011,225.0
2023-09-09T08:13:03,42.805,6.029,-0.019,0.006,-0.04,103.0,102.0,101.0,13.4,1505.2,333.4,-0.8,1.8,2471.473,13.29,0.019,287.5
2023-09-09T08:16:03,42.805,6.029,-0.015,-0.009,-0.019,103.0,102.0,102.0,13.3,1505.2,334.2,-0.8,1.8,2471.439,13.29,0.017,239.0
2023-09-09T08:19:03,42.805,6.029,-0.031,-0.011,-0.041,103.0,102.0,101.0,13.3,1505.2,325.7,-0.8,1.8,2471.475,13.29,0.032,250.5
2023-09-09T08:22:03,42.805,6.029,-0.055,-0.012,-0.031,102.0,102.0,102.0,13.4,1505.2,330.7,-0.7,1.8,2471.452,13.29,0.056,257.7
2023-09-09T08:25:03,42.805,6.029,-0.04,-0.005,-0.055,102.0,102.0,102.0,13.3,1505.2,331.6,-0.8,1.8,2471.441,13.29,0.04,262.9
2023-09-09T08:28:03,42.805,6.029,-0.036,0.008,-0.022,102.0,102.0,101.0,13.4,1505.2,322.7,-0.8,1.8,2471.448,13.29,0.036,282.5
2023-09-09T08:31:03,42.805,6.029,-0.019,-0.032,-0.025,102.0,102.0,102.0,13.4,1505.2,335.4,-0.7,1.8,2471.42,13.29,0.037,210.7
2023-09-09T08:34:03,42.805,6.029,-0.056,0.014,-0.034,102.0,102.0,101.0,13.4,1505.2,329.0,-0.8,1.8,2471.46,13.29,0.057,284.0
2023-09-09T08:37:03,42.805,6.029,-0.037,0.0,-0.033,103.0,102.0,101.0,13.4,1505.2,354.4,-0.8,1.8,2471.434,13.29,0.037,270.0
2023-09-09T08:40:03,42.805,6.029,-0.036,0.013,-0.02,103.0,102.0,101.0,13.4,1505.2,337.1,-0.8,1.8,2471.424,13.29,0.038,289.9
2023-09-09T08:43:04,42.805,6.029,-0.03,0.024,-0.007,104.0,103.0,101.0,13.4,1505.2,334.9,-0.7,1.8,2471.43,13.29,0.038,308.7
2023-09-09T08:46:03,42.805,6.029,-0.036,0.0,-0.044,103.0,102.0,101.0,13.4,1505.2,331.4,-0.7,1.8,2471.443,13.29,0.036,270.0
2023-09-09T08:49:06,42.805,6.029,-0.042,0.01,-0.041,101.0,103.0,102.0,13.3,1505.2,342.3,-0.8,1.8,2471.424,13.29,0.043,283.4
2023-09-09T08:52:03,42.805,6.029,-0.041,0.013,-0.032,103.0,101.0,102.0,13.4,1505.2,330.3,-0.8,1.8,2471.392,13.29,0.043,287.6
2023-09-09T08:55:03,42.805,6.029,-0.038,0.01,-0.054,102.0,103.0,102.0,13.4,1505.2,326.8,-0.8,1.8,2471.454,13.29,0.039,284.7
2023-09-09T08:58:03,42.805,6.029,-0.036,0.001,-0.044,102.0,102.0,103.0,13.4,1505.2,329.1,-0.8,1.8,2471.453,13.29,0.036,271.6
2023-09-09T09:04:03,42.805,6.029,-0.023,0.0,-0.044,102.0,102.0,101.0,13.4,1505.2,351.5,-0.8,1.8,2471.5,13.28,0.023,270.0
2023-09-09T09:07:03,42.805,6.029,-0.02,0.005,-0.042,103.0,102.0,101.0,13.4,1505.2,336.2,-0.8,1.8,2471.517,13.29,0.02,284.0
2023-09-09T09:10:03,42.805,6.029,-0.029,0.02,-0.032,103.0,103.0,101.0,13.4,1505.2,335.5,-0.8,1.8,2471.472,13.29,0.035,304.6
2023-09-09T09:13:03,42.805,6.029,-0.021,-0.011,-0.008,103.0,103.0,102.0,13.3,1505.2,345.5,-0.7,1.8,2471.457,13.29,0.023,242.4
2023-09-09T09:16:03,42.805,6.029,-0.03,0.003,-0.028,103.0,103.0,102.0,13.4,1505.2,347.3,-0.8,1.8,2471.433,13.29,0.03,275.7
2023-09-09T09:19:02,42.805,6.029,-0.027,-0.007,-0.007,103.0,103.0,102.0,13.4,1505.2,338.3,-0.8,1.8,2471.488,13.29,0.027,255.5
2023-09-09T09:22:03,42.805,6.029,-0.031,0.0,-0.01,104.0,102.0,102.0,13.4,1505.2,326.0,-0.8,1.8,2471.457,13.29,0.03,270.0
2023-09-09T09:25:03,42.805,6.029,-0.019,0.004,-0.032,102.0,104.0,101.0,13.4,1505.2,341.9,-0.8,1.8,2471.46,13.29,0.019,281.9
2023-09-09T09:28:03,42.805,6.029,-0.054,0.033,-0.007,103.0,102.0,101.0,13.4,1505.2,352.0,-0.8,1.8,2471.413,13.29,0.063,301.4
2023-09-09T09:31:03,42.805,6.029,-0.049,0.007,-0.041,102.0,102.0,102.0,13.4,1505.2,337.0,-0.8,1.8,2471.427,13.29,0.049,278.1
2023-09-09T09:34:03,42.805,6.029,-0.026,0.023,-0.003,103.0,101.0,102.0,13.3,1505.2,345.2,-0.7,1.8,2471.439,13.29,0.034,311.5
2023-09-09T09:37:05,42.805,6.029,-0.028,-0.022,-0.022,102.0,102.0,102.0,13.3,1505.2,336.9,-0.8,1.8,2471.435,13.29,0.035,231.8
2023-09-09T09:40:03,42.805,6.029,-0.016,-0.03,-0.05,103.0,102.0,101.0,13.4,1505.2,331.4,-0.8,1.8,2471.427,13.29,0.034,208.1
2023-09-09T09:43:03,42.805,6.029,-0.033,-0.012,-0.061,102.0,103.0,102.0,13.4,1505.2,335.9,-0.7,1.8,2471.444,13.29,0.035,250.0
2023-09-09T09:46:03,42.805,6.029,-0.049,0.032,-0.062,102.0,103.0,102.0,13.3,1505.2,352.0,-0.8,1.8,2471.446,13.29,0.058,303.2
2023-09-09T09:49:03,42.805,6.029,-0.041,0.004,-0.023,103.0,102.0,101.0,13.4,1505.2,341.2,-0.7,1.8,2471.431,13.29,0.041,275.6
2023-09-09T09:52:03,42.805,6.029,-0.041,-0.019,-0.01,104.0,103.0,101.0,13.3,1505.2,329.0,-0.8,1.8,2471.447,13.29,0.045,245.1
2023-09-09T09:55:03,42.805,6.029,-0.046,-0.012,-0.029,103.0,103.0,102.0,13.3,1505.2,336.1,-0.8,1.8,2471.438,13.29,0.047,255.4
2023-09-09T09:58:05,42.805,6.029,-0.049,0.018,-0.038,103.0,102.0,102.0,13.4,1505.2,351.5,-0.7,1.8,2471.435,13.29,0.052,290.2
2023-09-09T10:04:03,42.805,6.029,-0.037,-0.013,-0.045,102.0,102.0,102.0,13.4,1505.2,335.5,-0.8,1.8,2471.515,13.28,0.039,250.6
2023-09-09T10:07:03,42.805,6.029,-0.021,0.009,-0.016,102.0,104.0,102.0,13.4,1505.2,346.2,-0.8,1.8,2471.473,13.28,0.022,293.2
2023-09-09T10:10:03,42.805,6.029,-0.028,0.006,-0.003,103.0,102.0,102.0,13.4,1505.2,333.8,-0.8,1.8,2471.5,13.29,0.028,282.1
2023-09-09T10:13:03,42.805,6.029,-0.024,-0.006,-0.028,103.0,102.0,102.0,13.4,1505.2,341.5,-0.8,1.8,2471.476,13.29,0.024,256.0
2023-09-09T10:16:03,42.805,6.029,-0.018,-0.015,-0.012,103.0,102.0,102.0,13.4,1505.2,330.8,-0.8,1.8,2471.471,13.29,0.023,230.2
2023-09-09T10:19:03,42.805,6.029,-0.019,0.009,-0.024,104.0,103.0,101.0,13.3,1505.2,327.0,-0.8,1.8,2471.455,13.29,0.021,295.3
2023-09-09T10:22:03,42.805,6.029,-0.019,-0.003,-0.015,102.0,103.0,102.0,13.4,1505.2,344.4,-0.8,1.8,2471.487,13.29,0.019,261.0
2023-09-09T10:25:05,42.805,6.029,-0.031,0.009,-0.018,103.0,103.0,101.0,13.4,1505.2,337.3,-0.8,1.8,2471.494,13.29,0.032,286.2
2023-09-09T10:28:03,42.805,6.029,-0.052,0.003,-0.011,101.0,102.0,102.0,13.3,1505.2,328.2,-0.8,1.8,2471.448,13.29,0.052,273.3
2023-09-09T10:31:03,42.805,6.029,-0.035,-0.008,-0.047,103.0,103.0,101.0,13.4,1505.2,343.6,-0.7,1.8,2471.475,13.29,0.035,257.1
2023-09-09T10:34:03,42.805,6.029,-0.04,0.027,-0.051,102.0,102.0,101.0,13.4,1505.2,348.3,-0.8,1.8,2471.449,13.29,0.048,304.0
2023-09-09T10:37:03,42.805,6.029,-0.051,-0.007,-0.039,102.0,102.0,102.0,13.4,1505.2,334.9,-0.8,1.8,2471.464,13.29,0.051,262.2
2023-09-09T10:40:03,42.805,6.029,-0.028,0.009,-0.013,105.0,102.0,101.0,13.4,1505.2,335.5,-0.8,1.8,2471.454,13.29,0.029,287.8
2023-09-09T10:43:03,42.805,6.029,-0.037,0.0,-0.035,102.0,104.0,102.0,13.4,1505.2,325.3,-0.8,1.8,2471.495,13.29,0.037,270.0
2023-09-09T10:46:03,42.805,6.029,-0.031,-0.007,-0.036,103.0,103.0,101.0,13.4,1505.2,329.3,-0.7,1.8,2471.439,13.29,0.031,257.3
2023-09-09T10:49:03,42.805,6.029,-0.027,0.01,-0.036,104.0,101.0,103.0,13.3,1505.2,354.2,-0.7,1.8,2471.459,13.29,0.028,290.3
2023-09-09T10:52:03,42.805,6.029,-0.041,0.002,-0.027,103.0,104.0,102.0,13.4,1505.2,333.9,-0.8,1.8,2471.454,13.29,0.041,272.8